Madrid Cuatro Vientos, Spain

9:18 PM CEST on April 25, 2017 (GMT +0200)
Madrid Cuatro Vientos

Weather History for LEVS - August, 2013

Change the Weather History Date:

Friday, August 16, 2013

  Actual Average Record
Temperature  
Mean Temperature 84 °F -  
Max Temperature 98 °F 82 °F 98 °F (2013)
Min Temperature 71 °F 60 °F 55 °F (2006)
Cooling Degree Days 20    
Growing Degree Days 34 (Base 50)    
Moisture  
Dew Point 62 °F    
Average Humidity 45    
Maximum Humidity 73    
Minimum Humidity 27    
Precipitation  
Precipitation 0.00 in - - ()
Sea Level Pressure  
Sea Level Pressure 30.07 in    
Wind  
Wind Speed 6 mph ()    
Max Wind Speed 20 mph    
Max Gust Speed 25 mph    
Visibility 6.2 miles    
Events      
Averages and records for this station are not official NWS values.
T = Trace of Precipitation, MM = Missing Value Source: Averaged Metar Reports

Daily Weather History Graph

Daily Weather History Graph

Search for Another Location

Airport or City:

Trip Planner

Search our weather history database for the weather conditions in past years. The results will help you decide how hot, cold, wet, or windy it might be!

Date:

Astronomy

Aug. 16, 2013 Rise Set
Actual Time 7:27 AM CEST 9:11 PM CEST
Civil Twilight 6:57 AM CEST 9:40 PM CEST
Nautical Twilight 6:22 AM CEST 10:15 PM CEST
Astronomical Twilight 5:44 AM CEST 10:52 PM CEST
Moon 5:15 PM CEST (8/16) 2:16 AM CEST (8/16)
Length of Visible Light 14h 42m
Length of Day
13h 43m
Waxing Gibbous, 72% of the Moon is Illuminated
Aug 16
Waxing Gibbous
Aug 21
Full
Aug 28
Last Quarter
Sep 5
New
Sep 12
First Quarter

Hourly Weather History & Observations

Time (CEST) Temp. Heat Index Dew Point Humidity Pressure Visibility Wind Dir Wind Speed Gust Speed Precip Events Conditions
7:00 AM 73.4 °F - 62.6 °F 69% 30.09 in - Variable 2.3 mph - N/A   Clear
7:30 AM 73.4 °F - 62.6 °F 69% 30.09 in - Variable 2.3 mph - N/A   Clear
8:00 AM 71.6 °F - 62.6 °F 73% 30.09 in 6.2 mi Variable 2.3 mph - N/A   Partly Cloudy
8:30 AM 75.2 °F - 64.4 °F 69% 30.09 in 6.2 mi Variable 2.3 mph - N/A   Partly Cloudy
9:00 AM 77.0 °F - 64.4 °F 65% 30.12 in 6.2 mi ESE 3.5 mph - N/A   Partly Cloudy
9:30 AM 78.8 °F - 64.4 °F 61% 30.12 in - ESE 3.5 mph - N/A   Clear
10:00 AM 78.8 °F - 64.4 °F 61% 30.12 in - ESE 3.5 mph - N/A   Clear
10:30 AM 77.0 °F - 62.6 °F 61% 30.12 in 6.2 mi Variable 1.2 mph - N/A   Partly Cloudy
11:00 AM 80.6 °F 82.7 °F 66.2 °F 61% 30.12 in 6.2 mi ESE 6.9 mph - N/A   Partly Cloudy
11:30 AM 78.8 °F - 64.4 °F 61% 30.12 in 6.2 mi ESE 4.6 mph - N/A   Partly Cloudy
12:00 PM 84.2 °F 86.6 °F 66.2 °F 55% 30.12 in 6.2 mi Variable 3.5 mph - N/A   Partly Cloudy
12:30 PM 86.0 °F 88.2 °F 66.2 °F 51% 30.12 in 6.2 mi ESE 3.5 mph - N/A   Partly Cloudy
1:00 PM 87.8 °F 90.4 °F 66.2 °F 49% 30.09 in 6.2 mi Variable 4.6 mph - N/A   Partly Cloudy
1:30 PM 89.6 °F 93.4 °F 68.0 °F 49% 30.09 in 6.2 mi SE 6.9 mph - N/A   Partly Cloudy
2:00 PM 89.6 °F 92.2 °F 66.2 °F 46% 30.09 in 6.2 mi SE 5.8 mph - N/A   Partly Cloudy
2:30 PM 93.2 °F 97.7 °F 68.0 °F 44% 30.06 in 6.2 mi South 5.8 mph - N/A   Partly Cloudy
3:00 PM 93.2 °F 96.2 °F 66.2 °F 41% 30.06 in 6.2 mi Variable 4.6 mph 19.6 mph N/A   Partly Cloudy
3:30 PM 96.8 °F 100.7 °F 66.2 °F 37% 30.06 in 6.2 mi SSW 10.4 mph - N/A   Partly Cloudy
4:00 PM 96.8 °F 99.0 °F 64.4 °F 34% 30.04 in 6.2 mi WSW 11.5 mph 25.3 mph N/A   Partly Cloudy
4:30 PM 96.8 °F 98.0 °F 62.6 °F 32% 30.04 in 6.2 mi WSW 15.0 mph - N/A   Partly Cloudy
5:00 PM 98.6 °F 100.0 °F 62.6 °F 30% 30.04 in 6.2 mi SW 12.7 mph - N/A   Partly Cloudy
5:30 PM 96.8 °F 97.1 °F 60.8 °F 30% 30.01 in 6.2 mi WSW 16.1 mph - N/A   Partly Cloudy
6:00 PM 95.0 °F 94.4 °F 59.0 °F 30% 30.01 in 6.2 mi SW 17.3 mph - N/A   Partly Cloudy
6:30 PM 95.0 °F 93.7 °F 57.2 °F 28% 30.01 in 6.2 mi WSW 19.6 mph - N/A   Partly Cloudy
7:00 PM 93.2 °F 91.9 °F 57.2 °F 30% 30.01 in 6.2 mi SW 17.3 mph - N/A   Partly Cloudy
7:30 PM 95.0 °F 94.4 °F 59.0 °F 30% 30.01 in 6.2 mi SW 13.8 mph - N/A   Partly Cloudy
8:00 PM 93.2 °F 91.3 °F 55.4 °F 28% 30.01 in 6.2 mi SSW 13.8 mph 25.3 mph N/A   Partly Cloudy
8:30 PM 91.4 °F 89.1 °F 53.6 °F 28% 30.01 in 6.2 mi WSW 15.0 mph - N/A   Partly Cloudy
9:00 PM 87.8 °F - 50.0 °F 27% 30.04 in 6.2 mi WSW 10.4 mph - N/A   Partly Cloudy
9:30 PM 86.0 °F - 50.0 °F 29% 30.04 in 6.2 mi WNW 6.9 mph - N/A   Partly Cloudy
10:00 PM 80.6 °F - 48.2 °F 32% 30.04 in - WNW 3.5 mph - N/A   Clear